TUI189 EDDS-LPMA

Flight info

Callsign TUI189
Flight time 1h 32m
Altitude 31000
Route EDDS/25 N0431F310 ROTW5B ROTWE Y126 TUBLO N850 NATOR DCT LUTIX DCT BENOT/N0446F350 DCT NEMOS DCT NINTU DCT MEBAK DCT REPSI DCT LERGA DCT MINSO DCT NARAK DCT AGN DCT PIPOR DCT PPN DCT MIRPO DCT DGO DCT NEA DCT ARDID/N0444F370 DCT FTM DCT NARTA DCT GALPA DCT RULET DCT RAKUN RAKU1P LPMA/23
Aircraft B738/M-SDE2E3FGHIRWXY/LB1

Departure

Time 2026-05-07 13:34
Airport Stuttgart Airport (EDDS)

Arrival

Time 2026-05-07 15:06
Airport Cristiano Ronaldo International Airport (LPMA)
Time Latitude Longitude Altitude Speed Heading
2026-05-07 12:57 48.68912 9.19519 1301 ft 0 kts 343°
2026-05-07 13:21 48.68899 9.19525 1301 ft 3 kts 343°
2026-05-07 13:21 48.68883 9.19533 1301 ft 2 kts 352°
2026-05-07 13:22 48.68873 9.19536 1301 ft 2 kts 350°
2026-05-07 13:22 48.68864 9.19538 1301 ft 1 kts
2026-05-07 13:22 48.68851 9.19534 1301 ft 3 kts 30°
2026-05-07 13:22 48.68842 9.19515 1301 ft 2 kts 75°
2026-05-07 13:23 48.68839 9.19498 1301 ft 2 kts 74°
2026-05-07 13:23 48.68839 9.19495 1301 ft 0 kts 78°
2026-05-07 13:25 48.68841 9.19505 1301 ft 2 kts 73°
2026-05-07 13:25 48.68852 9.19556 1301 ft 9 kts 77°
2026-05-07 13:25 48.68876 9.19682 1301 ft 15 kts 69°
2026-05-07 13:26 48.68898 9.19830 1299 ft 15 kts 99°
2026-05-07 13:26 48.68840 9.19889 1298 ft 9 kts 166°
2026-05-07 13:26 48.68805 9.19943 1297 ft 6 kts 85°
2026-05-07 13:26 48.68840 9.20039 1294 ft 17 kts 73°
2026-05-07 13:27 48.68890 9.20280 1288 ft 30 kts 73°
2026-05-07 13:27 48.68948 9.20601 1280 ft 32 kts 75°
2026-05-07 13:27 48.69008 9.20928 1269 ft 32 kts 75°
2026-05-07 13:27 48.69071 9.21251 1265 ft 31 kts 69°
2026-05-07 13:28 48.69132 9.21564 1251 ft 31 kts 76°
2026-05-07 13:28 48.69188 9.21880 1241 ft 31 kts 75°
2026-05-07 13:28 48.69249 9.22194 1232 ft 31 kts 74°
2026-05-07 13:28 48.69311 9.22515 1223 ft 32 kts 73°
2026-05-07 13:29 48.69370 9.22835 1214 ft 32 kts 73°
2026-05-07 13:29 48.69430 9.23162 1206 ft 32 kts 75°
2026-05-07 13:29 48.69492 9.23481 1200 ft 31 kts 74°
2026-05-07 13:29 48.69551 9.23792 1194 ft 31 kts 73°
2026-05-07 13:30 48.69611 9.24098 1188 ft 30 kts 72°
2026-05-07 13:30 48.69530 9.24305 1185 ft 12 kts 167°
2026-05-07 13:30 48.69513 9.24311 1185 ft 0 kts 167°
2026-05-07 13:31 48.69483 9.24321 1185 ft 11 kts 168°
2026-05-07 13:31 48.69406 9.24365 1184 ft 11 kts 172°
2026-05-07 13:32 48.69395 9.24356 1184 ft 0 kts 249°
2026-05-07 13:32 48.69395 9.24354 1184 ft 0 kts 255°
2026-05-07 13:33 48.69388 9.24314 1185 ft 20 kts 254°
2026-05-07 13:33 48.69284 9.23757 1195 ft 89 kts 254°
2026-05-07 13:33 48.69059 9.22579 1225 ft 145 kts 254°
2026-05-07 13:33 48.68759 9.20915 1500 ft 171 kts 256°
2026-05-07 13:34 48.68414 9.19174 2327 ft 173 kts 256°
2026-05-07 13:34 48.67771 9.15687 3882 ft 172 kts 256°
2026-05-07 13:34 48.67446 9.13953 4579 ft 176 kts 256°
2026-05-07 13:35 48.67086 9.12033 4868 ft 200 kts 255°
2026-05-07 13:35 48.66678 9.09887 5047 ft 222 kts 255°
2026-05-07 13:35 48.66206 9.07619 5435 ft 235 kts 250°
2026-05-07 13:35 48.65550 9.05291 5940 ft 248 kts 247°
2026-05-07 13:36 48.64817 9.02846 6461 ft 260 kts 246°
2026-05-07 13:36 48.64059 9.00335 7186 ft 264 kts 246°
2026-05-07 13:36 48.63305 8.97820 7976 ft 266 kts 246°
2026-05-07 13:36 48.62552 8.95297 8715 ft 269 kts 246°
2026-05-07 13:37 48.61766 8.92648 9501 ft 273 kts 246°
2026-05-07 13:37 48.60989 8.90020 10243 ft 275 kts 246°
2026-05-07 13:37 48.60180 8.87281 10526 ft 296 kts 246°
2026-05-07 13:37 48.59306 8.84316 10713 ft 318 kts 246°
2026-05-07 13:38 48.58389 8.81206 11027 ft 333 kts 246°
2026-05-07 13:38 48.57432 8.77962 11614 ft 339 kts 246°
2026-05-07 13:38 48.56479 8.74734 12311 ft 342 kts 246°
2026-05-07 13:38 48.55498 8.71418 13006 ft 346 kts 246°
2026-05-07 13:39 48.54515 8.68097 13698 ft 349 kts 246°
2026-05-07 13:39 48.53515 8.64720 14324 ft 353 kts 246°
2026-05-07 13:39 48.52508 8.61326 14943 ft 356 kts 246°
2026-05-07 13:39 48.51497 8.57922 15575 ft 358 kts 246°
2026-05-07 13:40 48.50472 8.54472 16155 ft 362 kts 246°
2026-05-07 13:40 48.49436 8.50996 16759 ft 365 kts 246°
2026-05-07 13:40 48.48392 8.47496 17364 ft 368 kts 246°
2026-05-07 13:40 48.47118 8.44195 17907 ft 374 kts 230°
2026-05-07 13:41 48.45099 8.41614 18492 ft 379 kts 213°
2026-05-07 13:41 48.42650 8.40097 18997 ft 386 kts 196°
2026-05-07 13:41 48.40024 8.39217 19507 ft 389 kts 194°
2026-05-07 13:41 48.37355 8.38422 19983 ft 393 kts 193°
2026-05-07 13:42 48.34652 8.37628 20486 ft 396 kts 193°
2026-05-07 13:42 48.31935 8.36809 20989 ft 399 kts 193°
2026-05-07 13:42 48.29218 8.35967 21475 ft 402 kts 194°
2026-05-07 13:42 48.26454 8.35096 21961 ft 404 kts 194°
2026-05-07 13:43 48.23688 8.34218 22421 ft 407 kts 194°
2026-05-07 13:43 48.20899 8.33334 22874 ft 410 kts 193°
2026-05-07 13:43 48.18156 8.32328 23301 ft 412 kts 200°
2026-05-07 13:43 48.15503 8.30705 23718 ft 413 kts 209°
2026-05-07 13:44 48.13042 8.28476 24113 ft 413 kts 214°
2026-05-07 13:44 48.10638 8.26130 24511 ft 415 kts 214°
2026-05-07 13:44 48.08223 8.23751 24877 ft 417 kts 214°
2026-05-07 13:44 48.05775 8.21346 25248 ft 419 kts 214°
2026-05-07 13:45 48.00906 8.16608 25979 ft 423 kts 214°
2026-05-07 13:45 47.90985 8.07081 27576 ft 424 kts 214°
2026-05-07 13:45 47.81145 7.97713 29643 ft 414 kts 214°
2026-05-07 13:45 47.71559 7.88609 30901 ft 416 kts 214°
2026-05-07 13:46 47.61624 7.79213 31155 ft 433 kts 214°
2026-05-07 13:46 47.51387 7.69585 31043 ft 438 kts 214°
2026-05-07 13:46 47.41119 7.59978 30954 ft 424 kts 214°
2026-05-07 13:46 47.31619 7.51122 30929 ft 406 kts 214°
2026-05-07 13:47 47.21992 7.42181 31021 ft 401 kts 214°
2026-05-07 13:47 47.13464 7.31949 31038 ft 399 kts 236°
2026-05-07 13:47 47.06589 7.18676 31096 ft 408 kts 233°
2026-05-07 13:48 46.92203 6.92522 30989 ft 414 kts 233°
2026-05-07 13:48 46.85025 6.79535 30956 ft 403 kts 233°
2026-05-07 13:48 46.78057 6.66980 30993 ft 395 kts 234°
2026-05-07 13:49 46.64080 6.41943 31042 ft 403 kts 233°
2026-05-07 13:49 46.49792 6.16598 31014 ft 410 kts 233°
2026-05-07 13:50 46.35388 5.91281 30951 ft 394 kts 233°
2026-05-07 13:50 46.21565 5.67188 31040 ft 391 kts 233°
2026-05-07 13:51 46.08143 5.41959 31042 ft 403 kts 238°
2026-05-07 13:51 45.95482 5.15361 30975 ft 398 kts 237°
2026-05-07 13:52 45.83065 4.89878 31026 ft 386 kts 237°
2026-05-07 13:52 45.70547 4.64386 31045 ft 399 kts 236°
2026-05-07 13:53 45.57634 4.38239 30998 ft 401 kts 236°
2026-05-07 13:53 45.44931 4.12862 30987 ft 386 kts 236°
2026-05-07 13:54 45.32274 3.87891 31032 ft 394 kts 235°
2026-05-07 13:54 45.19408 3.62310 31015 ft 404 kts 236°
2026-05-07 13:55 45.06586 3.36347 30927 ft 390 kts 235°
2026-05-07 13:55 44.94152 3.11475 31009 ft 390 kts 235°
2026-05-07 13:56 44.81449 2.85916 31013 ft 404 kts 237°
2026-05-07 13:56 44.71368 2.63788 30964 ft 398 kts 237°
2026-05-07 13:56 44.63440 2.46753 30963 ft 386 kts 236°
2026-05-07 13:57 44.57610 2.34291 31012 ft 387 kts 236°
2026-05-07 13:57 44.45564 2.08694 31040 ft 401 kts 236°
2026-05-07 13:58 44.33214 1.82679 30964 ft 397 kts 236°
2026-05-07 13:58 44.23299 1.61471 30976 ft 385 kts 237°
2026-05-07 13:59 44.09667 1.31895 31026 ft 400 kts 236°
2026-05-07 13:59 43.99400 1.09869 30957 ft 402 kts 236°
2026-05-07 14:00 43.87483 0.84435 30947 ft 386 kts 237°
2026-05-07 14:00 43.76481 0.58718 31007 ft 395 kts 238°
2026-05-07 14:01 43.65025 0.32388 30950 ft 404 kts 237°
2026-05-07 14:01 43.53585 0.06317 30903 ft 387 kts 237°
2026-05-07 14:02 43.42365 -0.19011 30978 ft 392 kts 237°
2026-05-07 14:02 43.30787 -0.44927 30956 ft 404 kts 236°
2026-05-07 14:03 43.19145 -0.70765 30889 ft 391 kts 236°
2026-05-07 14:03 43.07720 -0.95897 30958 ft 389 kts 236°
2026-05-07 14:04 42.96007 -1.21444 30970 ft 402 kts 236°
2026-05-07 14:04 42.84132 -1.47158 30906 ft 397 kts 235°
2026-05-07 14:04 42.78249 -1.59812 30888 ft 386 kts 235°
2026-05-07 14:05 42.72746 -1.72262 30902 ft 386 kts 245°
2026-05-07 14:05 42.66508 -2.00680 30967 ft 402 kts 249°
2026-05-07 14:06 42.59602 -2.30048 30891 ft 408 kts 249°
2026-05-07 14:06 42.52576 -2.58696 30865 ft 395 kts 249°
2026-05-07 14:07 42.45503 -2.87281 30958 ft 405 kts 248°
2026-05-07 14:07 42.36002 -3.15423 30920 ft 415 kts 243°
2026-05-07 14:08 42.26391 -3.43413 30858 ft 399 kts 243°
2026-05-07 14:08 42.17024 -3.70392 30944 ft 402 kts 243°
2026-05-07 14:09 42.07268 -3.98238 30916 ft 415 kts 243°
2026-05-07 14:09 41.97289 -4.25559 30838 ft 399 kts 241°
2026-05-07 14:10 41.87131 -4.51937 30939 ft 401 kts 242°
2026-05-07 14:10 41.76636 -4.79130 30929 ft 418 kts 242°
2026-05-07 14:10 41.71197 -4.93111 31655 ft 431 kts 243°
2026-05-07 14:11 41.65627 -5.07363 32639 ft 435 kts 244°
2026-05-07 14:11 41.60016 -5.21644 34057 ft 427 kts 245°
2026-05-07 14:11 41.54503 -5.35616 34822 ft 429 kts 245°
2026-05-07 14:11 41.48904 -5.49731 35816 ft 424 kts 245°
2026-05-07 14:12 41.43357 -5.63659 36440 ft 427 kts 244°
2026-05-07 14:12 41.37737 -5.77700 37018 ft 428 kts 244°
2026-05-07 14:12 41.32059 -5.91823 36959 ft 438 kts 244°
2026-05-07 14:13 41.20566 -6.20186 36828 ft 431 kts 245°
2026-05-07 14:13 41.14208 -6.33477 36818 ft 426 kts 233°
2026-05-07 14:13 41.06307 -6.45006 36831 ft 415 kts 232°
2026-05-07 14:14 40.91192 -6.67654 36885 ft 408 kts 234°
2026-05-07 14:14 40.76114 -6.90245 36897 ft 420 kts 234°
2026-05-07 14:15 40.60398 -7.13578 36839 ft 422 kts 234°
2026-05-07 14:15 40.45052 -7.36186 36799 ft 405 kts 233°
2026-05-07 14:16 40.30341 -7.57722 36831 ft 392 kts 234°
2026-05-07 14:16 40.15623 -7.79128 36909 ft 405 kts 233°
2026-05-07 14:16 40.07921 -7.90264 36900 ft 416 kts 233°
2026-05-07 14:17 40.00109 -8.01511 36876 ft 422 kts 233°
2026-05-07 14:17 39.84400 -8.23995 36827 ft 412 kts 233°
2026-05-07 14:18 39.69319 -8.45447 36840 ft 394 kts 233°
2026-05-07 14:18 39.53463 -8.65193 36920 ft 398 kts 228°
2026-05-07 14:19 39.36987 -8.84834 36939 ft 412 kts 228°
2026-05-07 14:19 39.20069 -9.04938 36875 ft 411 kts 228°
2026-05-07 14:20 39.03477 -9.24516 36869 ft 394 kts 228°
2026-05-07 14:20 38.87528 -9.43230 36958 ft 388 kts 228°
2026-05-07 14:21 38.71320 -9.62129 36974 ft 399 kts 227°
2026-05-07 14:21 38.54737 -9.81326 36934 ft 406 kts 227°
2026-05-07 14:22 38.38193 -10.00346 36923 ft 394 kts 227°
2026-05-07 14:22 38.22242 -10.18580 36933 ft 378 kts 227°
2026-05-07 14:23 38.06447 -10.36539 36995 ft 384 kts 226°
2026-05-07 14:23 37.90289 -10.54789 36985 ft 396 kts 226°
2026-05-07 14:24 37.73830 -10.73251 36928 ft 390 kts 226°
2026-05-07 14:24 37.57940 -10.90972 36936 ft 375 kts 226°
2026-05-07 14:24 37.50470 -10.99767 36853 ft 353 kts 227°
2026-05-07 14:25 37.43314 -11.07492 36837 ft 324 kts 225°
2026-05-07 14:25 37.36810 -11.14499 36814 ft 292 kts 226°
2026-05-07 14:25 37.31002 -11.20886 36412 ft 268 kts 227°
2026-05-07 14:25 37.25376 -11.27104 35270 ft 271 kts 227°
2026-05-07 14:26 37.19777 -11.33263 34402 ft 268 kts 226°
2026-05-07 14:26 37.14246 -11.39322 33704 ft 259 kts 226°
2026-05-07 14:26 37.08584 -11.45020 33054 ft 269 kts 221°
2026-05-07 14:26 37.02891 -11.51265 32986 ft 277 kts 226°
2026-05-07 14:27 36.97681 -11.57758 32985 ft 252 kts 226°
2026-05-07 14:27 36.91871 -11.63265 32477 ft 274 kts 224°
2026-05-07 14:27 36.85979 -11.69847 32529 ft 283 kts 225°
2026-05-07 14:27 36.80162 -11.76233 33137 ft 275 kts 225°
2026-05-07 14:28 36.74463 -11.82399 33492 ft 271 kts 225°
2026-05-07 14:28 36.68690 -11.88627 33633 ft 274 kts 224°
2026-05-07 14:28 36.62941 -11.94813 33779 ft 276 kts 224°
2026-05-07 14:28 36.57076 -12.01106 33994 ft 276 kts 224°
2026-05-07 14:29 36.51302 -12.07288 34172 ft 275 kts 224°
2026-05-07 14:29 36.45526 -12.13463 34286 ft 276 kts 224°
2026-05-07 14:29 36.39614 -12.19774 34508 ft 287 kts 224°
2026-05-07 14:29 36.33468 -12.26316 35022 ft 293 kts 224°
2026-05-07 14:30 36.27293 -12.32869 35685 ft 294 kts 224°
2026-05-07 14:30 36.21023 -12.39514 36230 ft 296 kts 224°
2026-05-07 14:30 36.14738 -12.46162 36673 ft 301 kts 224°
2026-05-07 14:30 36.08293 -12.52965 37004 ft 308 kts 224°
2026-05-07 14:31 36.01983 -12.60392 37071 ft 322 kts 230°
2026-05-07 14:31 35.95898 -12.68818 37078 ft 339 kts 230°
2026-05-07 14:31 35.89422 -12.77637 37062 ft 356 kts 229°
2026-05-07 14:31 35.82494 -12.86939 37048 ft 373 kts 229°
2026-05-07 14:32 35.75382 -12.96452 37037 ft 387 kts 229°
2026-05-07 14:32 35.60551 -13.16224 36958 ft 391 kts 229°
2026-05-07 14:33 35.45952 -13.35559 36959 ft 376 kts 229°
2026-05-07 14:33 35.32108 -13.53809 37010 ft 365 kts 228°
2026-05-07 14:34 35.18094 -13.72182 37038 ft 374 kts 228°
2026-05-07 14:34 35.03496 -13.91213 37022 ft 387 kts 228°
2026-05-07 14:35 34.88837 -14.10205 36973 ft 380 kts 228°
2026-05-07 14:35 34.74689 -14.28437 36982 ft 366 kts 228°
2026-05-07 14:36 34.60726 -14.46357 37042 ft 370 kts 228°
2026-05-07 14:36 34.46266 -14.64788 37040 ft 384 kts 227°
2026-05-07 14:37 34.31450 -14.83656 36981 ft 384 kts 227°
2026-05-07 14:37 34.18470 -15.00088 36912 ft 358 kts 227°
2026-05-07 14:37 34.16764 -15.02225 36862 ft 346 kts 227°
2026-05-07 14:38 34.15100 -15.04311 36428 ft 344 kts 227°
2026-05-07 14:38 34.13443 -15.06390 35569 ft 353 kts 227°
2026-05-07 14:38 34.11725 -15.08545 34978 ft 356 kts 227°
2026-05-07 14:38 34.10012 -15.10693 34601 ft 352 kts 226°
2026-05-07 14:39 34.08322 -15.12810 34277 ft 347 kts 226°
2026-05-07 14:39 34.06653 -15.14899 33911 ft 344 kts 226°
2026-05-07 14:39 34.05007 -15.16958 33471 ft 342 kts 226°
2026-05-07 14:39 34.03368 -15.19007 33062 ft 339 kts 226°
2026-05-07 14:40 34.01735 -15.21048 32675 ft 336 kts 226°
2026-05-07 14:40 34.00112 -15.23076 32292 ft 333 kts 226°
2026-05-07 14:40 33.98514 -15.25072 31904 ft 330 kts 226°
2026-05-07 14:40 33.96941 -15.27034 31527 ft 328 kts 226°
2026-05-07 14:41 33.95360 -15.29006 31160 ft 325 kts 226°
2026-05-07 14:41 33.93790 -15.30963 30801 ft 322 kts 226°
2026-05-07 14:41 33.92236 -15.32899 30442 ft 320 kts 226°
2026-05-07 14:41 33.90706 -15.34803 30097 ft 317 kts 226°
2026-05-07 14:42 33.89176 -15.36707 29674 ft 315 kts 226°
2026-05-07 14:42 33.87656 -15.38597 29236 ft 313 kts 226°
2026-05-07 14:42 33.86142 -15.40478 28778 ft 311 kts 226°
2026-05-07 14:42 33.84639 -15.42345 28332 ft 310 kts 226°
2026-05-07 14:43 33.83145 -15.44200 27908 ft 308 kts 226°
2026-05-07 14:43 33.81666 -15.46036 27497 ft 307 kts 226°
2026-05-07 14:43 33.80181 -15.47878 27025 ft 307 kts 226°
2026-05-07 14:43 33.78696 -15.49719 26660 ft 304 kts 226°
2026-05-07 14:44 33.77241 -15.51522 26319 ft 301 kts 226°
2026-05-07 14:44 33.75797 -15.53309 25998 ft 297 kts 226°
2026-05-07 14:44 33.74361 -15.55086 25694 ft 294 kts 226°
2026-05-07 14:44 33.72949 -15.56833 25375 ft 291 kts 226°
2026-05-07 14:45 33.71553 -15.58558 25070 ft 288 kts 227°
2026-05-07 14:45 33.70158 -15.60283 24760 ft 285 kts 227°
2026-05-07 14:45 33.68789 -15.61973 24456 ft 283 kts 227°
2026-05-07 14:45 33.67418 -15.63667 24161 ft 280 kts 227°
2026-05-07 14:46 33.66049 -15.65356 23867 ft 279 kts 227°
2026-05-07 14:46 33.64724 -15.66990 23568 ft 278 kts 227°
2026-05-07 14:46 33.63376 -15.68651 23222 ft 276 kts 227°
2026-05-07 14:46 33.62032 -15.70307 22927 ft 272 kts 227°
2026-05-07 14:47 33.60740 -15.71898 22643 ft 269 kts 227°
2026-05-07 14:47 33.59421 -15.73523 22334 ft 269 kts 227°
2026-05-07 14:47 33.58127 -15.75116 22058 ft 269 kts 227°
2026-05-07 14:47 33.56780 -15.76774 21773 ft 280 kts 227°
2026-05-07 14:48 33.55396 -15.78470 21474 ft 289 kts 227°
2026-05-07 14:48 33.53993 -15.80137 21275 ft 285 kts 226°
2026-05-07 14:48 33.52579 -15.81794 21004 ft 281 kts 226°
2026-05-07 14:48 33.51654 -15.82876 20780 ft 280 kts 227°
2026-05-07 14:49 33.50264 -15.84500 20457 ft 278 kts 227°
2026-05-07 14:49 33.48874 -15.86124 20139 ft 277 kts 227°
2026-05-07 14:49 33.47500 -15.87731 19823 ft 276 kts 227°
2026-05-07 14:49 33.46126 -15.89339 19502 ft 274 kts 227°
2026-05-07 14:50 33.44776 -15.90918 19202 ft 273 kts 227°
2026-05-07 14:50 33.43418 -15.92506 18890 ft 272 kts 227°
2026-05-07 14:50 33.42075 -15.94077 18587 ft 271 kts 227°
2026-05-07 14:50 33.40723 -15.95658 18269 ft 271 kts 228°
2026-05-07 14:51 33.39375 -15.97233 17925 ft 270 kts 228°
2026-05-07 14:51 33.38028 -15.98808 17599 ft 269 kts 228°
2026-05-07 14:51 33.36705 -16.00352 17298 ft 267 kts 228°
2026-05-07 14:51 33.35379 -16.01900 16990 ft 265 kts 228°
2026-05-07 14:52 33.34063 -16.03434 16697 ft 263 kts 228°
2026-05-07 14:52 33.32757 -16.04958 16412 ft 261 kts 228°
2026-05-07 14:52 33.31470 -16.06458 16136 ft 263 kts 228°
2026-05-07 14:52 33.30157 -16.07996 15846 ft 263 kts 229°
2026-05-07 14:53 33.28834 -16.09545 15560 ft 267 kts 228°
2026-05-07 14:53 33.27490 -16.11108 15273 ft 273 kts 228°
2026-05-07 14:53 33.26121 -16.12700 14974 ft 279 kts 228°
2026-05-07 14:53 33.24714 -16.14336 14666 ft 284 kts 228°
2026-05-07 14:54 33.23286 -16.15997 14345 ft 289 kts 228°
2026-05-07 14:54 33.21840 -16.17676 14024 ft 291 kts 228°
2026-05-07 14:54 33.20481 -16.19253 13694 ft 289 kts 228°
2026-05-07 14:54 33.18985 -16.20987 13332 ft 286 kts 228°
2026-05-07 14:55 33.17577 -16.22619 13022 ft 283 kts 227°
2026-05-07 14:55 33.16173 -16.24247 12694 ft 280 kts 227°
2026-05-07 14:55 33.14782 -16.25858 12408 ft 277 kts 227°
2026-05-07 14:55 33.13398 -16.27461 12098 ft 274 kts 227°
2026-05-07 14:56 33.12048 -16.29025 11806 ft 271 kts 227°
2026-05-07 14:56 33.10685 -16.30604 11496 ft 273 kts 227°
2026-05-07 14:56 33.09273 -16.32241 11235 ft 301 kts 226°
2026-05-07 14:56 33.07667 -16.34107 10880 ft 338 kts 226°
2026-05-07 14:57 33.05942 -16.36103 10460 ft 351 kts 226°
2026-05-07 14:57 33.04193 -16.38121 10113 ft 348 kts 226°
2026-05-07 14:57 33.02470 -16.40105 9918 ft 346 kts 226°
2026-05-07 14:57 33.00735 -16.42105 9486 ft 349 kts 226°
2026-05-07 14:58 32.98986 -16.44120 9103 ft 350 kts 226°
2026-05-07 14:58 32.97245 -16.46126 8709 ft 350 kts 226°
2026-05-07 14:58 32.95498 -16.48139 8303 ft 349 kts 226°
2026-05-07 14:58 32.93759 -16.50142 7926 ft 348 kts 226°
2026-05-07 14:59 32.92016 -16.52123 7549 ft 347 kts 225°
2026-05-07 14:59 32.90219 -16.54045 7172 ft 347 kts 224°
2026-05-07 14:59 32.88411 -16.55951 6788 ft 346 kts 224°
2026-05-07 14:59 32.86606 -16.57862 6554 ft 339 kts 224°
2026-05-07 15:00 32.84878 -16.59698 6324 ft 327 kts 224°
2026-05-07 15:00 32.83226 -16.61459 5952 ft 320 kts 224°
2026-05-07 15:00 32.81498 -16.63052 5601 ft 315 kts 213°
2026-05-07 15:00 32.79476 -16.64097 5273 ft 312 kts 199°
2026-05-07 15:01 32.77431 -16.64872 4948 ft 306 kts 200°
2026-05-07 15:01 32.75422 -16.65665 4604 ft 301 kts 200°
2026-05-07 15:01 32.73454 -16.66454 4273 ft 297 kts 200°
2026-05-07 15:01 32.71532 -16.67229 4160 ft 286 kts 200°
2026-05-07 15:02 32.69698 -16.67971 4013 ft 278 kts 200°
2026-05-07 15:02 32.67867 -16.68713 3858 ft 269 kts 200°
2026-05-07 15:02 32.66124 -16.69420 3573 ft 267 kts 200°
2026-05-07 15:02 32.64377 -16.70127 3294 ft 263 kts 200°
2026-05-07 15:03 32.62708 -16.70961 2995 ft 255 kts 212°
2026-05-07 15:03 32.61401 -16.72320 2733 ft 246 kts 234°
2026-05-07 15:03 32.60717 -16.74067 2476 ft 231 kts 257°
2026-05-07 15:03 32.60612 -16.75921 2216 ft 224 kts 274°
2026-05-07 15:04 32.60946 -16.77722 1941 ft 225 kts 287°
2026-05-07 15:04 32.61683 -16.79332 1678 ft 218 kts 309°
2026-05-07 15:04 32.62864 -16.80391 1379 ft 211 kts 336°
2026-05-07 15:04 32.64245 -16.80690 1162 ft 195 kts
2026-05-07 15:05 32.65530 -16.80538 924 ft 179 kts
2026-05-07 15:05 32.66694 -16.80391 738 ft 159 kts 10°
2026-05-07 15:05 32.67636 -16.79903 546 ft 138 kts 38°
2026-05-07 15:05 32.68308 -16.79163 316 ft 131 kts 47°
2026-05-07 15:06 32.68994 -16.78369 179 ft 140 kts 46°
2026-05-07 15:06 32.69669 -16.77583 175 ft 103 kts 43°
2026-05-07 15:06 32.69978 -16.77204 179 ft 27 kts 85°
2026-05-07 15:06 32.69951 -16.77155 177 ft 0 kts 180°
2026-05-07 15:07 32.69947 -16.77156 177 ft 7 kts 187°
2026-05-07 15:07 32.69806 -16.77217 172 ft 25 kts 231°
2026-05-07 15:07 32.69687 -16.77365 165 ft 25 kts 227°
2026-05-07 15:07 32.69585 -16.77495 173 ft 20 kts 226°
2026-05-07 15:08 32.69493 -16.77609 171 ft 19 kts 225°
2026-05-07 15:08 32.69402 -16.77686 169 ft 11 kts 193°
2026-05-07 15:08 32.69379 -16.77681 169 ft 0 kts 150°
2026-05-07 15:08 32.69356 -16.77656 173 ft 0 kts 138°
2026-05-07 15:09 32.69355 -16.77656 173 ft 0 kts 138°